User: anonymous   Login
Location: Bakov nad Jizerou
(50.4784°N, 14.9394°E)
Time: 09:34:04
(UTC+00:00)
Language:

Cosmos 2123 Rocket - Orbit

View from above orbital plane
View from above orbital plane
View from above satellite
View from above satellite

Ground track
Ground track

The orbit data is extracted from the following two-line orbital elements,

1 21090U 91007B   21263.77632930  .00000058  00000-0  44079-4 0  9991
2 21090  82.9236 159.3856 0021021   7.2181 352.9275 13.76403191537841
Epoch (UTC): 20 September 2021 18:37:54
Eccentricity: 0.0021021
inclination: 82.9236°
perigee height: 961 km
apogee height: 992 km
right ascension of ascending node: 159.3856°
argument of perigee: 7.2181°
revolutions per day: 13.76403191
mean anomaly at epoch: 352.9275°
orbit number at epoch: 53784

The dashed part of the orbit path shows where the satellite is in the earth's shadow,  

DLR